User: anonymous
Location: Kitchener
(43.2612°N, 80.5078°W)
Time: 08:43:22
(UTC+02:00)
Language:

Iridium 57 - Orbit

View from above orbital plane
View from above orbital plane
View from above satellite
View from above satellite

Ground track
Ground track

The orbit data is extracted from the following two-line orbital elements,

1 25273U 98019B   14205.42622387  .00000002  00000-0 -62133-5 0  8310
2 25273 086.3972 009.8383 0002152 107.8303 252.3128 14.34218453854318
Epoch (UTC): 24 July 2014 10:13:45
Eccentricity: 0.0002152
inclination: 86.3972°
perigee height: 776 km
apogee height: 779 km
right ascension of ascending node: 9.8383°
argument of perigee: 107.8303°
revolutions per day: 14.34218453
mean anomaly at epoch: 252.3128°
orbit number at epoch: 85431

The dashed part of the orbit path shows where the satellite is in the earth's shadow,  

DLR